ELEKTRO-L 4

Last updated on Mon Jun 22 2026 00:03:07 GMT+0000 (Coordinated Universal Time)

1 55506U 23016A 26171.79221736 -.00000062 00000+0 00000+0 0 9994 2 55506 0.0764 157.9076 0000884 20.1640 181.9168 1.00271037 12376
UTC large
Height (km)
Speed (km/s)
/
Latitude / Longitude
Inclination (degrees)
Orbital Period (minutes)
Azimuth
Elevation
Range (km)
Doppler Factor

Next 0 passes for location: London (51.5072 / 0.1276)

No passes found over London.
ELEKTRO-L 4